NORTHEAST SUFFOLK  -  Dense Fog Advisory Dense Fog Advisory        NORTHERN NASSAU  -  Dense Fog Advisory Dense Fog Advisory        NORTHERN QUEENS  -  Dense Fog Advisory Dense Fog Advisory     Dense Fog Advisory Dense Fog Advisory        NORTHWEST SUFFOLK  -  Dense Fog Advisory Dense Fog Advisory        SOUTHEAST SUFFOLK  -  Dense Fog Advisory Dense Fog Advisory        SOUTHERN NASSAU  -  Dense Fog Advisory Dense Fog Advisory        SOUTHERN QUEENS  -  Dense Fog Advisory Dense Fog Advisory     Dense Fog Advisory Dense Fog Advisory        SOUTHWEST SUFFOLK  -  Dense Fog Advisory Dense Fog Advisory      

Active alerts

Northern Queens
  Details for Northern Queens Dense Fog Advisory  +1 additional alert
Southern Queens
  Details for Southern Queens Dense Fog Advisory  +1 additional alert
Northern Nassau
  Details for Northern Nassau Dense Fog Advisory
Southern Nassau
  Details for Southern Nassau Dense Fog Advisory
Northwest Suffolk
  Details for Northwest Suffolk Dense Fog Advisory
Southwest Suffolk
  Details for Southwest Suffolk Dense Fog Advisory
Northeast Suffolk
  Details for Northeast Suffolk Dense Fog Advisory
Southeast Suffolk
  Details for Southeast Suffolk Dense Fog Advisory


WXM80 ListenWXM80 Stop

You find our weather info also at:

UK Metoffice

WeatherCloud

Weather Underground

Northeastern Weather Network

AWEKAS

Citizen Weather Observer Program (CWOP)

HAMweather, WeatherForYou, PWS Weather


Weather Underground History page Text

Daily Summary for January 15, 2018 Units:  Metric    English   Both
« Previous Day
Next Day »
Daily Weekly Monthly Yearly Custom
  High: Low: Average:
Temperature: -17.8 °C -7.7 °C -5.1 °C
Dew Point: -17.8 °C -11.9 °C -8.5 °C
Humidity: Humidity % 70 % 77 %
Wind Speed: 0 km/h 1 km/h 8.5 km/h
Wind Gust: 0 km/h - -
Wind:- - ENE
Pressure: 0 hPa 1024.3 hPa -
Precipitation: 0 mm    
Historical Graphs
 
 
Tabular Data for January 15, 2018
Time Temperature Dew Point Pressure Wind Wind Speed Wind Gust Humidity Rainfall Rate (Hourly)
-17.8 °C -17.8 °C 0 hPa Calm     Humidity % 0 mm
00:01 -7.1 °C -11.5 °C 1030 hPa NNE 9.7 km/h 18.5 km/h 71 % 0 mm
00:07 -7.1 °C -11.5 °C 1030 hPa NE 9 km/h 14.8 km/h 71 % 0 mm
00:12 -7.2 °C -11.7 °C 1030 hPa NNE 9 km/h 20.4 km/h 70 % 0 mm
00:21 -7.2 °C -11.6 °C 1030 hPa NNE 7.9 km/h 11.1 km/h 71 % 0 mm
00:32 -7.2 °C -11.8 °C 1030.4 hPa NNE 7.6 km/h 14.8 km/h 70 % 0 mm
00:42 -7.3 °C -11.8 °C 1030 hPa ENE 7.7 km/h 14.8 km/h 70 % 0 mm
00:49 -7.3 °C -11.9 °C 1030 hPa North 9.8 km/h 18.5 km/h 70 % 0 mm
00:58 -7.3 °C -11.7 °C 1030 hPa NE 13.2 km/h 20.4 km/h 71 % 0 mm
01:03 -7.4 °C -11.9 °C 1030 hPa NE 13.8 km/h 20.4 km/h 70 % 0 mm
01:14 -7.4 °C -11.9 °C 1030.4 hPa NNE 10 km/h 22.2 km/h 70 % 0 mm
01:20 -7.4 °C -11.8 °C 1030.4 hPa NE 10.3 km/h 19.3 km/h 71 % 0 mm
01:29 -7.4 °C -11.8 °C 1030.4 hPa ENE 10.5 km/h 17.7 km/h 71 % 0 mm
01:35 -7.4 °C -11.9 °C 1030.4 hPa ENE 9.8 km/h 18.5 km/h 70 % 0 mm
01:41 -7.3 °C -11.7 °C 1030.4 hPa ENE 14.5 km/h 20.9 km/h 71 % 0 mm
01:46 -7.3 °C -11.7 °C 1030.7 hPa NE 4.8 km/h 19.3 km/h 71 % 0 mm
01:51 -7.3 °C -11.7 °C 1030.4 hPa NE 9.7 km/h 19.3 km/h 71 % 0 mm
01:56 -7.3 °C -11.9 °C 1030.4 hPa NE 8 km/h 19.3 km/h 70 % 0 mm
02:03 -7.3 °C -11.7 °C 1030.4 hPa ENE 9.3 km/h 13 km/h 71 % 0 mm
02:08 -7.3 °C -11.5 °C 1030.4 hPa ENE 7.9 km/h 18.5 km/h 72 % 0 mm
02:19 -7.3 °C -11.3 °C 1030.4 hPa NE 6.9 km/h 9.3 km/h 73 % 0 mm
02:24 -7.3 °C -11.3 °C 1030.4 hPa ENE 6 km/h 14.8 km/h 73 % 0 mm
02:30 -7.3 °C -11.3 °C 1030.4 hPa NE 10.5 km/h 14.8 km/h 73 % 0 mm
02:35 -7.3 °C -11.3 °C 1030.4 hPa NE 5.8 km/h 11.1 km/h 73 % 0 mm
02:52 -7.3 °C -11.1 °C 1030.4 hPa NE 10.8 km/h 16.7 km/h 74 % 0 mm
02:57 -7.2 °C -11.1 °C 1030.4 hPa ENE 13.4 km/h 18.5 km/h 74 % 0 mm
03:06 -7.2 °C -11.1 °C 1030.4 hPa NE 9 km/h 14.8 km/h 74 % 0 mm
03:15 -7.3 °C -11.1 °C 1030.4 hPa ENE 11.9 km/h 18.5 km/h 74 % 0 mm
03:25 -7.3 °C -10.9 °C 1030.4 hPa NE 6.4 km/h 6.4 km/h 75 % 0 mm
03:30 -7.3 °C -10.8 °C 1030.7 hPa ENE 10 km/h 16.7 km/h 76 % 0 mm
03:36 -7.3 °C -10.8 °C 1030.7 hPa East 10 km/h 16.7 km/h 76 % 0 mm
03:42 -7.3 °C -10.8 °C 1030.7 hPa NE 9.3 km/h 14.8 km/h 76 % 0 mm
03:47 -7.3 °C -10.8 °C 1030.7 hPa ENE 9.5 km/h 16.7 km/h 76 % 0 mm
03:54 -7.4 °C -10.9 °C 1030.7 hPa ENE 10.9 km/h 16.7 km/h 76 % 0 mm
03:59 -7.4 °C -10.9 °C 1030.7 hPa NE 7.9 km/h 16.7 km/h 76 % 0 mm
04:09 -7.5 °C -11 °C 1030.7 hPa NNE 5.5 km/h 13 km/h 76 % 0 mm
04:21 -7.6 °C -11.1 °C 1030.4 hPa ENE 5 km/h 16.7 km/h 76 % 0 mm
04:30 -7.6 °C -10.9 °C 1030.4 hPa ENE 9.2 km/h 14.8 km/h 77 % 0 mm
04:42 -7.6 °C -11.1 °C 1030.7 hPa NE 5.1 km/h 8 km/h 76 % 0 mm
04:47 -7.7 °C -11.2 °C 1030.7 hPa NE 5.1 km/h 11.1 km/h 76 % 0 mm
04:52 -7.7 °C -11.2 °C 1030.7 hPa NE 5.8 km/h 9.3 km/h 76 % 0 mm
05:01 -7.7 °C -11.2 °C 1030.7 hPa ENE 6.8 km/h 16.7 km/h 76 % 0 mm
05:07 -7.7 °C -11.2 °C 1030.7 hPa NNE 8 km/h 11.1 km/h 76 % 0 mm
05:17 -7.7 °C -11.2 °C 1030.7 hPa ENE 8.2 km/h 14.8 km/h 76 % 0 mm
05:27 -7.6 °C -10.9 °C 1030.7 hPa ENE 9.2 km/h 18.5 km/h 77 % 0 mm
05:45 -7.4 °C -10.7 °C 1030.7 hPa ENE 10.9 km/h 18.5 km/h 77 % 0 mm
05:52 -7.3 °C -10.5 °C 1030.7 hPa North 5.5 km/h 9.3 km/h 78 % 0 mm
05:58 -7.3 °C -10.5 °C 1030.7 hPa NNE 3.9 km/h 14.8 km/h 78 % 0 mm
06:06 -7.3 °C -10.4 °C 1030.7 hPa NE 7.4 km/h 11.1 km/h 78 % 0 mm
06:14 -7.3 °C -10.3 °C 1031 hPa ENE 5.5 km/h 11.1 km/h 79 % 0 mm
06:26 -7.2 °C -10.2 °C 1031 hPa NNE 5.1 km/h 12.9 km/h 79 % 0 mm
06:40 -7.1 °C -9.9 °C 1031 hPa ENE 6 km/h 9.3 km/h 80 % 0 mm
06:51 -6.8 °C -9.7 °C 1030.7 hPa East 5.6 km/h 14.5 km/h 80 % 0 mm
06:56 -6.7 °C -9.6 °C 1031 hPa NE 8 km/h 16.1 km/h 80 % 0 mm
07:01 -6.6 °C -9.5 °C 1030.7 hPa ENE 5.5 km/h 13 km/h 80 % 0 mm
07:06 -6.5 °C -9.4 °C 1031 hPa ENE 9.7 km/h 16.1 km/h 80 % 0 mm
07:11 -6.4 °C -9.3 °C 1031 hPa ENE 10.3 km/h 14.8 km/h 80 % 0 mm
07:26 -6.2 °C -9.3 °C 1031 hPa ENE 8.5 km/h 13 km/h 79 % 0 mm
07:45 -6.2 °C -9.3 °C 1030.7 hPa ENE 10.6 km/h 16.7 km/h 79 % 0 mm
07:50 -6.2 °C -9.4 °C 1031 hPa ENE 8 km/h 16.7 km/h 78 % 0 mm
07:56 -6.2 °C -9.4 °C 1031 hPa ENE 9.7 km/h 19.3 km/h 78 % 0 mm
08:07 -6.2 °C -9.3 °C 1031 hPa NE 11.4 km/h 14.8 km/h 79 % 0 mm
08:17 -6.2 °C -9.2 °C 1031 hPa ENE 10.8 km/h 18.5 km/h 79 % 0 mm
08:33 -6 °C -9.1 °C 1030.7 hPa ENE 10.1 km/h 16.7 km/h 79 % 0 mm
08:41 -5.9 °C -8.8 °C 1030.7 hPa NE 10.8 km/h 18.5 km/h 80 % 0 mm
08:48 -5.8 °C -8.9 °C 1030.7 hPa ENE 9.7 km/h 14.8 km/h 79 % 0 mm
08:53 -5.8 °C -8.9 °C 1030.7 hPa ENE 6.4 km/h 18.5 km/h 79 % 0 mm
09:00 -5.8 °C -8.8 °C 1030.7 hPa ENE 7.2 km/h 16.7 km/h 79 % 0 mm
09:12 -5.7 °C -8.7 °C 1030.4 hPa ENE 11.6 km/h 18.5 km/h 79 % 0 mm
09:23 -5.3 °C -8.2 °C 1030.4 hPa ENE 13.8 km/h 18.5 km/h 80 % 0 mm
09:38 -5 °C -8.1 °C 1030.7 hPa ENE 10.3 km/h 20.4 km/h 79 % 0 mm
09:46 -4.9 °C -7.9 °C 1030.7 hPa NE 4.5 km/h 13 km/h 79 % 0 mm
09:52 -4.7 °C -7.8 °C 1030.7 hPa NE 13.4 km/h 18.5 km/h 79 % 0 mm
10:00 -4.6 °C -7.7 °C 1030.7 hPa ENE 12.2 km/h 16.7 km/h 79 % 0 mm
10:05 -4.6 °C -7.8 °C 1030.4 hPa NE 15.6 km/h 18.5 km/h 78 % 0 mm
10:13 -4.7 °C -8.1 °C 1030.4 hPa ENE 14.3 km/h 19.3 km/h 77 % 0 mm
10:22 -4.7 °C -7.9 °C 1030 hPa ENE 14.6 km/h 22.2 km/h 78 % 0 mm
10:29 -4.6 °C -7.9 °C 1030.4 hPa ENE 13.7 km/h 18.5 km/h 78 % 0 mm
10:37 -4.5 °C -7.6 °C 1030.4 hPa East 13.4 km/h 22.2 km/h 79 % 0 mm
10:44 -4.4 °C -7.5 °C 1030 hPa ENE 13.7 km/h 19.3 km/h 79 % 0 mm
11:00 -4.3 °C -7.4 °C 1029.7 hPa ENE 12.2 km/h 18.5 km/h 79 % 0 mm
11:06 -4.2 °C -7.3 °C 1029.7 hPa NE 8.9 km/h 14.5 km/h 79 % 0 mm
11:12 -4.1 °C -7.2 °C 1029.3 hPa ENE 13.8 km/h 16.7 km/h 79 % 0 mm
11:26 -3.9 °C -7.1 °C 1029 hPa ENE 9.3 km/h 14.5 km/h 79 % 0 mm
11:31 -3.9 °C -7.2 °C 1029 hPa ENE 11.9 km/h 18.5 km/h 78 % 0 mm
11:42 -3.8 °C -7.1 °C 1028.7 hPa ENE 9.7 km/h 12.9 km/h 78 % 0 mm
11:54 -3.7 °C -7 °C 1028.3 hPa ENE 11.4 km/h 16.7 km/h 78 % 0 mm
12:02 -3.7 °C -7 °C 1028 hPa ENE 11.1 km/h 17.7 km/h 78 % 0 mm
12:08 -3.7 °C -7 °C 1028 hPa ENE 9.7 km/h 18.5 km/h 78 % 0 mm
12:26 -3.6 °C -6.9 °C 1027.7 hPa ENE 8.7 km/h 14.8 km/h 78 % 0 mm
12:47 -3.3 °C -6.8 °C 1027.3 hPa ENE 6.9 km/h 13 km/h 77 % 0 mm
12:52 -3.3 °C -6.7 °C 1027.3 hPa NE 1.4 km/h 3.7 km/h 77 % 0 mm
13:06 -3.1 °C -6.7 °C 1027 hPa North 2.4 km/h 5.6 km/h 76 % 0 mm
13:12 -3 °C -6.6 °C 1027 hPa ENE 6 km/h 9.3 km/h 76 % 0 mm
13:22 -3 °C -6.8 °C 1027 hPa NNE 3.9 km/h 11.1 km/h 75 % 0 mm
13:28 -2.9 °C -6.6 °C 1026.6 hPa ENE 6.6 km/h 11.1 km/h 76 % 0 mm
13:38 -2.8 °C -6.5 °C 1026.6 hPa ENE 4.8 km/h 7.4 km/h 76 % 0 mm
14:07 -2.8 °C -6.7 °C 1026.6 hPa NE 6.4 km/h 9.3 km/h 75 % 0 mm
14:13 -2.8 °C -6.5 °C 1026.6 hPa ENE 4.5 km/h 6.4 km/h 76 % 0 mm
14:22 -2.8 °C -6.7 °C 1026.6 hPa ENE 3.4 km/h 5.6 km/h 75 % 0 mm
14:27 -2.9 °C -6.7 °C 1026.6 hPa ENE 5.6 km/h 11.1 km/h 75 % 0 mm
14:37 -2.9 °C -6.6 °C 1026.3 hPa ENE 4.7 km/h 5.6 km/h 76 % 0 mm
14:51 -2.8 °C -6.3 °C 1026.3 hPa ENE 9 km/h 14.8 km/h 77 % 0 mm
15:01 -2.8 °C -6.3 °C 1026.3 hPa NE 10.5 km/h 16.7 km/h 77 % 0 mm
15:08 -2.8 °C -6.3 °C 1026.3 hPa ENE 6.9 km/h 13 km/h 77 % 0 mm
15:20 -2.8 °C -6.3 °C 1026.3 hPa ENE 7.1 km/h 16.7 km/h 77 % 0 mm
15:34 -2.9 °C -6.6 °C 1026.3 hPa ENE 10.1 km/h 14.8 km/h 76 % 0 mm
15:40 -3 °C -6.6 °C 1026.6 hPa ENE 7.9 km/h 18.5 km/h 76 % 0 mm
15:46 -3.1 °C -6.9 °C 1026.6 hPa NE 9 km/h 19.3 km/h 75 % 0 mm
15:47 -3.1 °C -6.9 °C 1026.3 hPa ENE 7.6 km/h 18.5 km/h 75 % 0 mm
15:48 -3.1 °C -6.9 °C 1026.6 hPa ENE 8.2 km/h 18.5 km/h 75 % 0 mm
15:49 -3.1 °C -6.7 °C 1026.6 hPa NE 9.7 km/h 13 km/h 76 % 0 mm
15:50 -3.1 °C -6.7 °C 1026.6 hPa ENE 9.7 km/h 13 km/h 76 % 0 mm
15:51 -3.1 °C -6.7 °C 1026.3 hPa NE 10.3 km/h 14.8 km/h 76 % 0 mm
15:52 -3.1 °C -6.7 °C 1026.3 hPa East 11.6 km/h 16.7 km/h 76 % 0 mm
15:54 -3.2 °C -6.8 °C 1026.3 hPa ENE 12.4 km/h 17.7 km/h 76 % 0 mm
15:57 -3.2 °C -6.8 °C 1026.3 hPa ENE 8.4 km/h 18.5 km/h 76 % 0 mm
15:59 -3.2 °C -6.8 °C 1026.3 hPa ENE 9.7 km/h 14.8 km/h 76 % 0 mm
16:05 -3.3 °C -6.9 °C 1026.3 hPa NE 7.6 km/h 14.8 km/h 76 % 0 mm
16:06 -3.3 °C -6.9 °C 1026.3 hPa ENE 6.1 km/h 9.3 km/h 76 % 0 mm
16:07 -3.3 °C -6.9 °C 1026.3 hPa NE 8.2 km/h 13 km/h 76 % 0 mm
16:17 -3.4 °C -7 °C 1026.3 hPa NE 9.3 km/h 13 km/h 76 % 0 mm
16:18 -3.4 °C -7 °C 1026.3 hPa ENE 10.6 km/h 14.8 km/h 76 % 0 mm
16:32 -3.5 °C -6.9 °C 1026.3 hPa NE 6.6 km/h 13 km/h 77 % 0 mm
16:39 -3.5 °C -6.9 °C 1026.3 hPa ENE 5.3 km/h 14.5 km/h 77 % 0 mm
16:51 -3.6 °C -7 °C 1026.6 hPa ENE 8 km/h 13 km/h 77 % 0 mm
16:57 -3.6 °C -6.8 °C 1026.6 hPa NNE 5.3 km/h 9.7 km/h 78 % 0 mm
17:07 -3.7 °C -7.1 °C 1026.6 hPa ENE 11.6 km/h 18.5 km/h 77 % 0 mm
17:19 -3.7 °C -7 °C 1026.3 hPa ENE 6.4 km/h 11.3 km/h 78 % 0 mm
17:36 -3.7 °C -7 °C 1026.6 hPa NNE 1 km/h 3.7 km/h 78 % 0 mm
17:43 -3.7 °C -7 °C 1026.6 hPa ENE 8.4 km/h 11.1 km/h 78 % 0 mm
17:58 -3.8 °C -7.3 °C 1026.6 hPa NE 3.9 km/h 7.4 km/h 77 % 0 mm
18:04 -3.8 °C -7.3 °C 1026.6 hPa NNE 3.9 km/h 7.4 km/h 77 % 0 mm
18:13 -3.8 °C -7.3 °C 1026.6 hPa ENE 4.5 km/h 13 km/h 77 % 0 mm
18:21 -3.8 °C -7.2 °C 1026.3 hPa ENE 4.2 km/h 11.1 km/h 77 % 0 mm
18:29 -3.8 °C -7.1 °C 1026.3 hPa ENE 5.6 km/h 14.5 km/h 78 % 0 mm
18:36 -3.8 °C -7.3 °C 1026 hPa East 8.2 km/h 11.1 km/h 77 % 0 mm
18:44 -3.9 °C -7.3 °C 1026 hPa ENE 5.5 km/h 11.1 km/h 77 % 0 mm
18:50 -3.9 °C -7.3 °C 1026 hPa ENE 7.7 km/h 14.8 km/h 77 % 0 mm
19:23 -3.9 °C -7.3 °C 1025.6 hPa East 11.7 km/h 16.7 km/h 77 % 0 mm
19:47 -3.9 °C -7.4 °C 1026.3 hPa ENE 9 km/h 14.8 km/h 77 % 0 mm
19:52 -3.9 °C -7.2 °C 1026.3 hPa ENE 8 km/h 13 km/h 78 % 0 mm
20:03 -4 °C -7.3 °C 1026.3 hPa ENE 10.1 km/h 14.8 km/h 78 % 0 mm
20:16 -4 °C -7.3 °C 1026 hPa ENE 8.7 km/h 14.8 km/h 78 % 0 mm
20:29 -4 °C -7.1 °C 1026 hPa ENE 8.7 km/h 16.7 km/h 79 % 0 mm
20:34 -4.1 °C -7.2 °C 1026 hPa ENE 7.9 km/h 11.1 km/h 79 % 0 mm
20:45 -4.1 °C -7.2 °C 1026 hPa ENE 10.5 km/h 16.1 km/h 79 % 0 mm
20:58 -4.1 °C -7 °C 1025.3 hPa ENE 8.2 km/h 13 km/h 80 % 0 mm
21:04 -4 °C -6.9 °C 1025.3 hPa ENE 10 km/h 14.8 km/h 80 % 0 mm
21:16 -3.9 °C -6.9 °C 1025.3 hPa ENE 10.8 km/h 14.5 km/h 80 % 0 mm
21:22 -3.9 °C -6.9 °C 1025.3 hPa ENE 11.4 km/h 18.5 km/h 80 % 0 mm
21:28 -3.9 °C -6.9 °C 1025.3 hPa ENE 12.7 km/h 14.8 km/h 80 % 0 mm
21:48 -3.9 °C -6.9 °C 1024.6 hPa East 13.2 km/h 16.7 km/h 80 % 0 mm
21:58 -3.9 °C -6.7 °C 1024.9 hPa East 10.5 km/h 14.8 km/h 81 % 0 mm
22:15 -3.8 °C -6.6 °C 1025.3 hPa ENE 6.6 km/h 8 km/h 81 % 0 mm
22:31 -3.8 °C -6.4 °C 1025.3 hPa ENE 7.2 km/h 11.1 km/h 82 % 0 mm
22:40 -3.8 °C -6.2 °C 1024.9 hPa East 7.1 km/h 13 km/h 83 % 0 mm
22:45 -3.7 °C -6.2 °C 1024.6 hPa ENE 6.3 km/h 9.7 km/h 83 % 0 mm
22:50 -3.7 °C -6.1 °C 1024.6 hPa ENE 6.1 km/h 11.1 km/h 83 % 0 mm
22:58 -3.6 °C -5.9 °C 1024.9 hPa ENE 6.3 km/h 11.1 km/h 84 % 0 mm
23:03 -3.5 °C -5.8 °C 1024.9 hPa ENE 7.2 km/h 8 km/h 84 % 0 mm
23:10 -3.4 °C -5.6 °C 1024.6 hPa ENE 6.1 km/h 14.5 km/h 85 % 0 mm
23:11 -3.4 °C -5.6 °C 1024.6 hPa ENE 7.9 km/h 14.8 km/h 85 % 0 mm
23:21 -3.3 °C -5.5 °C 1024.6 hPa ENE 8.9 km/h 12.9 km/h 85 % 0 mm
23:29 -3.3 °C -5.4 °C 1024.3 hPa ENE 8 km/h 13 km/h 85 % 0 mm
23:36 -3.2 °C -5.4 °C 1024.3 hPa ENE 4.7 km/h 5.6 km/h 85 % 0 mm
23:49 -3.1 °C -5.1 °C 1024.6 hPa ENE 6.8 km/h 11.3 km/h 86 % 0 mm
23:56 -3.1 °C -5.1 °C 1024.3 hPa ENE 5.8 km/h 7.4 km/h 86 % 0 mm
Crab Meadow Weather
Compliments of Weather Underground - 2.25 mb

Script developed by  Jim McMurry - jmcmurry@mwt.net Adapted for the template by  Wim van der Kuil - Leuven-Template.eu

Weather Terms: Flood Warning - General or areal flooding of streets, low-lying areas, urban storm drains, creeks and small streams is occurring, imminent, or highly likely. Flood warnings are issued for flooding that occurs more than 6 hours after the excessive rainfall. These warnings are issued on a county by county basis by the local Weather Forecast Office in Upton and are generally in effect for 6 to 12 hours.